Погода в Меркуря-Чук

Румыния     46°21′36″N   25°48′03″E
темп.,
°C
ветер,
м/с
пор.,
м/с
влажн.,
%
обл.,
%
осадки,
мм/ч
давл.,
гПа
погр.,
м
19 мая, ср
ср1900:00+6з61298100 0.3 10081061
03:00+6з51398100 0.4 10091103
06:00+6з51397100 0.2 10101009
09:00+7з41093100 0.3 10111011
12:00+11з596875 0.2 10111291
15:00+14зсз4653100 0.3 10111400
18:00+14з3451100 0.0 10101227
21:00+8юв118687 0.0 101111
20 мая, чт
чт2000:00+6св2293100 0.0 101137
03:00+6в2296100 0.2 101043
06:00+7в2797100 2.8 1008520
09:00+7св2596100 5.4 1008427
12:00+7св2495100 5.8 1009556
15:00+7ссв2293100 6.5 1010343
18:00+6св1296100 0.6 1011194
21:00+5ссв239899 2.4 1012135
21 мая, пт
пт2100:00+5с2397100 0.3 101392
03:00+5с2297100 0.4 101467
06:00+5ссз2397100 0.0 1014106
09:00+6ссз2497100 0.5 1016272
12:00+7ссз2494100 0.4 1017470
15:00+8с368499 0.4 1017776
18:00+11ссв346692 0.1 10171174
21:00+7с238540 0.1 101948
22 мая, сб
сб2200:00+4ссв22955 0.0 102022
03:00+4ссв22955 0.0 102019
06:00+3ссв22950 0.0 101916
09:00+12в11620 0.0 1017498
12:00+17ююз21465 0.0 10161165
15:00+19ююз223820 0.0 10141699
18:00+18зюз2241100 0.0 10131034
21:00+10сз11735 0.0 101410
23 мая, вс
вс2300:00+9ссв1173100 0.0 101510
03:00+8ссв1180100 0.0 101410
06:00+8св1181100 0.0 101411
09:00+16ююз1158100 0.0 1012300
12:00+20зюз2440100 0.0 10111644
15:00+21зюз354193 0.0 10101917
18:00+16з3587100 1.4 1010412
21:00+10зсз2598100 4.6 1014282